Location: Beekmeers
(50.8953°N, 3.6968°E)
Time: 17:11:26
(UTC+00:00)

COBE Rocket - Pass Details

Date: 12 August 2024
Orbit: 676 x 777 km, 97.1° (Epoch: 06 September)

Event Time Altitude Azimuth Distance (km) Brightness Sun altitude
Rises 01:32:58 0° 7° (N) 3,065 8.4 -20.5°
Reaches altitude 10° 01:35:19 10° 1° (N) 2,136 7.2 -20.3°
Maximum altitude 01:39:41 42° 292° (WNW) 976 4.4 -20.0°
Enters shadow 01:40:54 34° 254° (WSW) 1,108 4.5 -19.9°
